Regional Weather Roundup
Issued by NWS

Home | Current Version | Previous Version | Text Only | Print | Product List | Glossary Off
Versions: 1 2 3 4 5 6 7 8 9 10 11 12 13 14 15 16 17 18 19 20 21 22 23 24 25 26 27 28 29 30 31 32 33 34 35 36 37 38 39 40 41 42 43 44 45 46 47 48 49 50

725
ASUS43 KMKX 221200
RWRWI

WISCONSIN REGIONAL WEATHER ROUNDUP
NATIONAL WEATHER SERVICE MILWAUKEE/SULLIVAN WI
700 AM CDT FRI SEP 22 2017

NOTE: "FAIR" INDICATES FEW OR NO CLOUDS BELOW 12,000 FEET WITH NO
SIGNIFICANT WEATHER AND/OR OBSTRUCTIONS TO VISIBILITY.

WIZ001-002-006>008-014>016-023>028-221300-
NORTHWEST WISCONSIN

CITY           SKY/WX    TMP DP  RH WIND       PRES   REMARKS
SUPERIOR ARPT  CLOUDY    60  59  99 N5        29.86S
ASHLAND        CLOUDY    71  67  87 S8        29.86F
6HR MIN TEMP:  56; 6HR MAX TEMP:  72;

HAYWARD        CLOUDY    67  64  90 CALM      29.89S
6HR MIN TEMP:  66; 6HR MAX TEMP:  71;

SIREN          HVY RAIN  71  68  90 S13         N/A
CUMBERLAND     CLEAR     68  64  88 SE6       29.89R
RICE LAKE      PTCLDY    68  66  93 SE7       29.91R FOG
CHETEK         PTCLDY    69  68  95 SE6       29.90S
LADYSMITH      PTCLDY    70  67  90 SE6       29.94S
EAU CLAIRE     NOT AVBL
MENOMONIE      PTCLDY    70  68  94 E6        29.88F
NEW RICHMOND   CLEAR     73  67  82 S9        29.87R
OSCEOLA        CLEAR     74  68  82 S8        29.87R
$$

WIZ003>005-009-010-017-018-221300-
NORTH CENTRAL WISCONSIN

CITY           SKY/WX    TMP DP  RH WIND       PRES   REMARKS
MANITOWISH WTR CLOUDY    66  66 100 SE6       29.96F
ARBOR VITAE    CLEAR     72  69  91 S7        29.96F
WOODRUFF       CLEAR     72  69  91 S7        29.96F
RHINELANDER    CLEAR     70  68  93 S3        29.99F
6HR MIN TEMP:  67; 6HR MAX TEMP:  70;

EAGLE RIVER    CLEAR     66  66 100 S5        29.98S
LAND O LAKES   CLEAR     67  65  93 CALM      30.00S
PHILLIPS       CLOUDY    68  67  98 S7        29.94F
TOMAHAWK       CLEAR     65  64  95 CALM      29.98S
MEDFORD        CLEAR     65  64  96 S8        29.96F
MERRILL        PTCLDY    68  67  98 S5        29.98F
$$

WIZ029-030-035-036-043>047-221300-
CENTRAL WISCONSIN

CITY           SKY/WX    TMP DP  RH WIND       PRES   REMARKS
WAUSAU         CLEAR     66  65  96 SE6       29.97F
6HR MIN TEMP:  65; 6HR MAX TEMP:  67;

MOSINEE        PTCLDY    70  66  88 S10       30.00S
MARSHFIELD     CLEAR     68  65  90 S8        29.97F
6HR MIN TEMP:  67; 6HR MAX TEMP:  69;

STEVENS POINT  PTCLDY    65  65 100 CALM      30.00F
WAUPACA        CLEAR     65  65  98 CALM      30.01S FOG
WAUTOMA        CLEAR     62  62 100 CALM      30.01S
6HR MIN TEMP:  62; 6HR MAX TEMP:  65;

WISC RAPIDS    PTCLDY    69  66  90 S6        30.00S
6HR MIN TEMP:  65; 6HR MAX TEMP:  72;

CAMP DOUGLAS   NOT AVBL
$$

WIZ011>013-019>022-031-037>040-048>050-221300-
NORTHEAST WISCONSIN

CITY           SKY/WX    TMP DP  RH WIND       PRES   REMARKS
ANTIGO         MOCLDY    65  65 100 S7        30.02S FOG
SHAWANO        CLEAR     66  64  95 CALM      30.00S FOG
OCONTO         CLOUDY    60  60  99 CALM      30.01S
STURGEON BAY   CLEAR     68  67  96 S6        30.03R FOG
6HR MIN TEMP:  67; 6HR MAX TEMP:  71;

GREEN BAY      CLEAR     66  66 100 S5        30.01S FOG
6HR MIN TEMP:  65; 6HR MAX TEMP:  70;

MANITOWOC      FOG       66  65  96 CALM      30.04R VSB 1/4
6HR MIN TEMP:  64; 6HR MAX TEMP:  67;

APPLETON       PTCLDY    66  66 100 VRB5      30.01R
CLINTONVILLE   MOCLDY    63  63 100 CALM      30.00F FOG
OSHKOSH        CLEAR     69  67  93 S8        30.02R FOG
6HR MIN TEMP:  65; 6HR MAX TEMP:  69;

$$

WIZ032>034-041-042-053>061-221300-
SOUTHWEST WISCONSIN

CITY           SKY/WX    TMP DP  RH WIND       PRES   REMARKS
LA CROSSE      CLEAR     76  69  79 S16       29.92F
6HR MIN TEMP:  72; 6HR MAX TEMP:  76;

SPARTA         CLEAR     74  67  80 S6        29.96S
VIROQUA        CLEAR     71  69  94 CALM      29.98S
BOSCOBEL       CLEAR     75  68  78 S6        29.98R
6HR MIN TEMP:  66; 6HR MAX TEMP:  75;

PRAIRIE DU CHI CLEAR     75  65  72 CALM      29.96S
PLATTEVILLE    CLEAR     70  70  99 S8        30.02R
$$

WIZ056-057-062-063-064-067-068-221300-
SOUTH CENTRAL WISCONSIN

CITY           SKY/WX    TMP DP  RH WIND       PRES   REMARKS
REEDSBURG      CLEAR     69  69  99 CALM      29.99R
BARABOO/DELLS  CLEAR     72  65  80 S9        30.00R
LONE ROCK      NOT AVBL
MINERAL POINT  CLEAR     70  70 100 S5        30.02R
MADISON        PTCLDY    72  67  84 S6        30.02R
6HR MIN TEMP:  70; 6HR MAX TEMP:  74;

MIDDLETON      CLEAR     73  68  86 S3        30.03R
WATERTOWN      CLEAR     69  69 100 CALM      30.04R
MONROE         CLEAR     68  64  88 S9        30.04R
JANESVILLE     PTCLDY    73  68  83 S6        30.09R
$$

WIZ051-052-058>065-066-070>072-221300-
SOUTHEAST WISCONSIN

CITY           SKY/WX    TMP DP  RH WIND       PRES   REMARKS
MILWAUKEE      PTCLDY    74  69  85 SW8       30.05R
6HR MIN TEMP:  68; 6HR MAX TEMP:  74;

WAUKESHA       CLEAR     68  66  94 S5        30.07R
MILWAUKEE/TIMM CLEAR     68  63  83 S3        30.06R FOG
RACINE         CLEAR     70  69  97 SW5       30.07S FOG
6HR MIN TEMP:  68; 6HR MAX TEMP:  74;

BURLINGTON     FOG       61  61 100 CALM      30.05S VSB<1/4
KENOSHA        CLEAR     68  66  93 SW6       30.06R FOG
6HR MIN TEMP:  67; 6HR MAX TEMP:  73;

FOND DU LAC    CLEAR     73  66  78 S7        30.03R
6HR MIN TEMP:  69; 6HR MAX TEMP:  73;

SHEBOYGAN      FOG       65  65 100 SW6       30.04R VSB 3/4
6HR MIN TEMP:  62; 6HR MAX TEMP:  66;

WEST BEND        N/A     63  63 100 CALM      30.05R FOG
JUNEAU         CLEAR     69  67  92 SE6       30.05R
$$

LSZ147-162-221300-
LAKE SUPERIOR

STATION/POSITION TIME  TEMP    WIND        PRES    WAVE
                       AIR SEA DIR/SP/G            HT/PER
                 (UTC) (F)     (DEG/KT/KT) (MB)    (FT/S)
W MID LAKE BUOY  1050   59 55  140/  6/  6 1011.5F   1/ 4
DEVILS ISLAND    1100   63     100/  7/  8 1011.1F
PORT WING        1120   60     170/  2/ 13 1011.2F
SAXON HARBOR     1140   74     180/  7/ 11 1011.2R
$$

LMZ867-665-643>646-221300-
LAKE MICHIGAN

STATION/POSITION TIME  TEMP    WIND        PRES    WAVE
                       AIR SEA DIR/SP/G            HT/PER
                 (UTC) (F)     (DEG/KT/KT) (MB)    (FT/S)
S GREEN BAY BUOY 1130   69 67  190/  6/  8 1015.9R
N MID LAKE BUOY  1050   68 66  180/ 10/ 12 1016.9R   1
NORTHPORT PIER   1140   69     160/  5/  8 1016.3S
KEWAUNEE LAKESHO 1130   62     180/  2/  4 1016.1R
SHEBOYGAN LAKESH 1100   69     170/  9/  9 1016.6R
PORT WASHINGTON  1140   68     250/  2/  3 1018.3R
ATWATER BUOY     1009   68 66  170/  6/  6 1017.3R
MILWAUKEE LAKESH 1130   71     140/  3/  3   N/A
S MID LAKE BUOY  1050   71 69  200/  6/  8 1017.6R   1
KENOSHA   LAKESH 1100   73     170/  3/  4 1017.3
$$

TC  - TEMPERATURE IN CELSIUS
VSB - VISIBILITY IN STATUTE MILES
WCI - WIND CHILL INDEX
HX  - HEAT INDEX





USA.gov is the U.S. government's official web portal to all federal, state and local government web resources and services.